Change the Weather History Date:

Sunday, October 7, 2012

  Actual Average Record
Temperature  
Mean Temperature 62 °F 73 °F  
Max Temperature 69 °F 83 °F 91 °F (1981)
Min Temperature 55 °F 62 °F 45 °F (1952)
Degree Days  
Heating Degree Days 3 0  
Month to date heating degree days 3 0  
Since 1 July heating degree days 3 1  
Cooling Degree Days 0 8  
Month to date cooling degree days 50 62  
Year to date cooling degree days 3052 2618  
Growing Degree Days 12 (Base 50)    
Moisture  
Dew Point 52 °F    
Average Humidity 72    
Maximum Humidity 86    
Minimum Humidity 57    
Precipitation  
Precipitation 0.00 in 0.20 in 2.50 in (2007)
Month to date precipitation 0.01 1.46  
Year to date precipitation 46.09 46.94  
Sea Level Pressure  
Sea Level Pressure 30.11 in    
Wind  
Wind Speed 13 mph (NNE)    
Max Wind Speed 22 mph    
Max Gust Speed 25 mph    
Visibility 10 miles    
Events      
T = Trace of Precipitation, MM = Missing Value Source: NWS Daily Summary

Daily Weather History Graph

Daily Weather History Graph

Search for Another Location

Airport or City:

Trip Planner

Search our weather history database for the weather conditions in past years. The results will help you decide how hot, cold, wet, or windy it might be!

Date:

Astronomy

Oct. 07, 2012 Rise Set
Actual Time 7:04 AM CDT 6:45 PM CDT
Civil Twilight 6:40 AM CDT 7:09 PM CDT
Nautical Twilight 6:13 AM CDT 7:36 PM CDT
Astronomical Twilight 5:45 AM CDT 8:04 PM CDT
Moon No Moon Rise 1:24 PM CDT (10/7)
Length of Visible Light 12h 28m
Length of Day
11h 40m
Waning Gibbous, 56% of the Moon is Illuminated
Oct 7
Waning Gibbous
Oct 8
Last Quarter
Oct 15
New
Oct 21
First Quarter
Oct 29
Full

Hourly Weather History & Observations

Time (CDT) Temp. Dew Point Humidity Pressure Visibility Wind Dir Wind Speed Gust Speed Precip Events Conditions
12:53 AM 59.0 °F 54.0 °F 83% 30.07 in 10.0 mi North 16.1 mph 24.2 mph N/A   Overcast
1:01 AM 59.0 °F 53.6 °F 82% 30.07 in 10.0 mi North 16.1 mph 25.3 mph N/A   Overcast
1:53 AM 59.0 °F 53.1 °F 81% 30.08 in 10.0 mi North 16.1 mph 21.9 mph N/A   Overcast
2:53 AM 57.9 °F 53.1 °F 84% 30.09 in 10.0 mi North 15.0 mph - N/A   Overcast
3:53 AM 57.9 °F 53.1 °F 84% 30.09 in 10.0 mi North 11.5 mph - N/A   Overcast
4:53 AM 55.9 °F 51.1 °F 84% 30.09 in 10.0 mi North 13.8 mph - N/A   Overcast
5:53 AM 55.9 °F 51.1 °F 84% 30.10 in 10.0 mi North 13.8 mph - N/A   Overcast
6:19 AM 55.4 °F 51.8 °F 88% 30.11 in 10.0 mi North 11.5 mph - N/A   Overcast
6:53 AM 55.9 °F 51.1 °F 84% 30.12 in 10.0 mi North 11.5 mph - N/A   Overcast
7:53 AM 55.0 °F 50.0 °F 83% 30.13 in 10.0 mi North 17.3 mph 21.9 mph N/A   Overcast
8:53 AM 55.9 °F 50.0 °F 80% 30.15 in 10.0 mi North 15.0 mph - N/A   Overcast
9:53 AM 57.0 °F 50.0 °F 77% 30.16 in 10.0 mi North 12.7 mph - N/A   Overcast
10:40 AM 60.8 °F 51.8 °F 72% 30.16 in 10.0 mi North 11.5 mph - N/A   Overcast
10:53 AM 62.1 °F 52.0 °F 70% 30.15 in 10.0 mi NNE 11.5 mph 20.7 mph N/A   Overcast
11:53 AM 64.0 °F 52.0 °F 65% 30.15 in 10.0 mi NE 16.1 mph 23.0 mph N/A   Partly Cloudy
12:53 PM 63.0 °F 51.1 °F 65% 30.14 in 10.0 mi North 12.7 mph - N/A   Partly Cloudy
1:53 PM 64.9 °F 53.1 °F 65% 30.11 in 10.0 mi NE 11.5 mph - N/A   Clear
2:53 PM 66.9 °F 53.1 °F 61% 30.08 in 10.0 mi NNE 13.8 mph - N/A   Clear
3:53 PM 69.1 °F 54.0 °F 58% 30.06 in 10.0 mi North 17.3 mph - N/A   Clear
4:53 PM 69.1 °F 54.0 °F 58% 30.05 in 10.0 mi North 16.1 mph - N/A   Clear
5:53 PM 66.9 °F 53.1 °F 61% 30.06 in 10.0 mi North 17.3 mph 20.7 mph N/A   Clear
6:53 PM 63.0 °F 52.0 °F 67% 30.09 in 10.0 mi North 12.7 mph - N/A   Clear
7:53 PM 61.0 °F 52.0 °F 72% 30.10 in 10.0 mi NNE 11.5 mph - N/A   Clear
8:53 PM 59.0 °F 51.1 °F 75% 30.13 in 10.0 mi NE 11.5 mph - N/A   Partly Cloudy
9:53 PM 57.0 °F 50.0 °F 77% 30.14 in 10.0 mi NE 10.4 mph - N/A   Clear
10:53 PM 57.0 °F 50.0 °F 77% 30.14 in 10.0 mi NE 11.5 mph - N/A   Clear
11:53 PM 57.0 °F 50.0 °F 77% 30.13 in 10.0 mi NNE 9.2 mph - N/A   Mostly Cloudy